TimeEST,TemperatureF,Dew PointF,Humidity,Sea Level PressureIn,VisibilityMPH,Wind Direction,Wind SpeedMPH,Gust SpeedMPH,PrecipitationIn,Events,Conditions,WindDirDegrees,DateUTC
12:53 AM,69.1,66.0,90,30.00,10.0,SSE,3.5,-,N/A,,Overcast,160,2012-12-08 05:53:00
1:53 AM,66.9,64.9,93,29.99,10.0,Calm,Calm,-,N/A,,Mostly Cloudy,0,2012-12-08 06:53:00
2:53 AM,66.0,64.0,93,29.99,10.0,SE,3.5,-,N/A,,Clear,130,2012-12-08 07:53:00
3:45 AM,64.4,64.4,100,29.99,1.8,Calm,Calm,-,N/A,,Clear,0,2012-12-08 08:45:00
3:53 AM,64.0,63.0,96,29.99,0.5,Calm,Calm,-,N/A,Fog,Fog,0,2012-12-08 08:53:00
4:42 AM,62.6,62.6,100,30.00,0.2,Calm,Calm,-,N/A,Fog,Fog,0,2012-12-08 09:42:00
4:53 AM,62.1,62.1,100,30.00,0.2,Calm,Calm,-,N/A,Fog,Fog,0,2012-12-08 09:53:00
5:04 AM,62.6,60.8,94,29.99,0.2,Calm,Calm,-,N/A,Fog,Fog,0,2012-12-08 10:04:00
6:53 AM,63.0,62.1,97,30.02,0.2,Calm,Calm,-,N/A,Fog,Fog,0,2012-12-08 11:53:00
7:53 AM,64.0,63.0,96,30.04,0.5,NE,3.5,-,N/A,Fog,Fog,40,2012-12-08 12:53:00
8:07 AM,64.4,64.4,100,30.04,1.0,NE,3.5,-,N/A,,Mist,50,2012-12-08 13:07:00
8:14 AM,64.4,64.4,100,30.04,3.0,Calm,Calm,-,N/A,,Mostly Cloudy,0,2012-12-08 13:14:00
8:33 AM,66.2,66.2,100,30.06,10.0,Calm,Calm,-,N/A,,Scattered Clouds,0,2012-12-08 13:33:00
8:53 AM,68.0,66.9,96,30.06,10.0,Calm,Calm,-,N/A,,Scattered Clouds,0,2012-12-08 13:53:00
9:53 AM,77.0,66.9,71,30.06,10.0,ESE,8.1,-,N/A,,Clear,110,2012-12-08 14:53:00
10:53 AM,81.0,64.9,58,30.05,10.0,SE,10.4,-,N/A,,Clear,140,2012-12-08 15:53:00
11:53 AM,81.0,64.9,58,30.03,10.0,SE,8.1,-,N/A,,Partly Cloudy,130,2012-12-08 16:53:00
12:53 PM,82.0,64.0,54,30.01,10.0,ESE,8.1,-,N/A,,Mostly Cloudy,120,2012-12-08 17:53:00
1:53 PM,82.0,64.0,54,29.99,10.0,Calm,Calm,-,N/A,,Mostly Cloudy,0,2012-12-08 18:53:00
2:53 PM,84.0,64.9,53,29.98,10.0,Variable,6.9,-,N/A,,Partly Cloudy,0,2012-12-08 19:53:00
3:53 PM,82.9,64.0,53,29.98,10.0,West,6.9,-,N/A,,Mostly Cloudy,280,2012-12-08 20:53:00
4:53 PM,78.1,66.0,66,30.00,10.0,South,12.7,-,N/A,,Overcast,180,2012-12-08 21:53:00
5:11 PM,73.4,68.0,83,30.01,10.0,SE,12.7,-,N/A,,Overcast,130,2012-12-08 22:11:00
5:53 PM,72.0,68.0,87,30.03,5.0,ESE,5.8,-,0.00,,Overcast,110,2012-12-08 22:53:00
6:53 PM,70.0,68.0,93,30.03,10.0,NNE,5.8,-,N/A,,Overcast,20,2012-12-08 23:53:00
7:53 PM,69.1,66.9,93,30.05,10.0,ENE,4.6,-,N/A,,Overcast,70,2012-12-09 00:53:00
8:53 PM,68.0,66.9,96,30.06,10.0,Calm,Calm,-,N/A,,Clear,0,2012-12-09 01:53:00
9:37 PM,66.2,66.2,100,30.06,1.8,Calm,Calm,-,N/A,,Partly Cloudy,0,2012-12-09 02:37:00
9:41 PM,66.2,66.2,100,30.06,0.8,Calm,Calm,-,N/A,,Mist,0,2012-12-09 02:41:00
9:53 PM,68.0,66.9,96,30.07,3.0,Calm,Calm,-,N/A,,Partly Cloudy,0,2012-12-09 02:53:00
10:05 PM,64.4,64.4,100,30.07,0.5,ENE,3.5,-,N/A,Fog,Fog,60,2012-12-09 03:05:00
10:23 PM,66.2,64.4,94,30.07,2.0,NE,4.6,-,N/A,,Mostly Cloudy,40,2012-12-09 03:23:00
10:30 PM,66.2,66.2,100,30.07,10.0,Calm,Calm,-,N/A,,Mostly Cloudy,0,2012-12-09 03:30:00
10:49 PM,64.4,64.4,100,30.07,1.5,NE,4.6,-,N/A,,Mostly Cloudy,50,2012-12-09 03:49:00
10:53 PM,66.0,64.9,96,30.07,1.0,NE,3.5,-,N/A,,Mostly Cloudy,40,2012-12-09 03:53:00
11:08 PM,64.4,64.4,100,30.07,0.8,East,3.5,-,N/A,,Mostly Cloudy,100,2012-12-09 04:08:00
11:24 PM,66.2,64.4,94,30.07,1.5,Calm,Calm,-,N/A,,Mostly Cloudy,0,2012-12-09 04:24:00
11:39 PM,66.2,64.4,94,30.07,4.0,North,3.5,-,N/A,,Mostly Cloudy,360,2012-12-09 04:39:00
11:53 PM,66.0,66.0,100,30.07,5.0,Calm,Calm,-,N/A,,Scattered Clouds,0,2012-12-09 04:53:00